Location: Unspecified
(47.9110°N, 14.3980°E)
Time: 09:37:56
(UTC+00:00)

CZ-4 R/B - Pass Details

Date: 06 August 2020
Orbit: 682 x 752 km, 98.5° (Epoch: 20 September)

Event Time Altitude Azimuth Distance (km) Brightness Sun altitude
Rises 23:19:13 0° 16° (NNE) 3,180 8.4 -25.7°
Reaches altitude 10° 23:21:32 10° 20° (NNE) 2,262 7.4 -25.7°
Maximum altitude 23:26:29 63° 102° (ESE) 834 4.0 -25.6°
Enters shadow 23:26:34 63° 108° (ESE) 835 4.0 -25.6°
